Location: Axtheid
(49.6213°N, 11.8205°E)
Time: 08:58:28
(UTC+00:00)

Envisat - Pass Details

Date: 07 October 2022
Orbit: 763 x 765 km, 98.2° (Epoch: 01 December)

Event Time Altitude Azimuth Distance (km) Brightness Sun altitude
Rises 03:07:32 0° 19° (NNE) 3,246 6.8 -22.2°
Reaches altitude 10° 03:09:58 10° 26° (NNE) 2,315 6.0 -21.8°
Maximum altitude 03:14:50 44° 98° (E) 1,053 4.1 -21.1°
Drops below altitude 10° 03:19:40 10° 170° (S) 2,297 5.4 -20.3°
Sets 03:22:04 0° 177° (S) 3,218 6.1 -20.0°
